Location: McCall
(45.0000°N, 116.0000°W)
Time: 02:20:18
(UTC-06:00)

Amateur Radio Satellites - All Passes

Search period start: 21 April 2015 01:50
Search period end: 22 April 2015 01:50
Location: McCall, 45.0000°N, 116.0000°W

Satellite Date Start Highest point End Downlink Frequencies (MHz)
Time Altitude Azimuth
QB50P2 21 Apr 01:54:18 01:57:53 26° 293° (WNW) 02:01:26 145.880/145.840
ANTELSAT 21 Apr 01:54:19 01:57:29 17° 297° (WNW) 02:00:28 437.575/2403.000
TISAT 1 21 Apr 01:55:59 01:59:47 33° 264° (W) 02:03:35 437.305
PHONESAT 2.4 21 Apr 02:05:06 02:07:05 14° 207° (SSW) 02:09:01 2401.200-2431.200
SPROUT 21 Apr 02:06:43 02:10:07 22° 268° (W) 02:13:26 437.525
NANOSAT C BR1 21 Apr 02:16:54 02:19:43 17° 296° (WNW) 02:22:24 145.865
POPSAT HIP 1 21 Apr 02:17:38 02:20:25 17° 296° (WNW) 02:23:05 437.405
Cosmos 2491 21 Apr 02:25:35 02:32:48 27° 298° (WNW) 02:39:51 435.465 / 435.565
STARS 21 Apr 02:33:10 02:35:03 13° 61° (ENE) 02:37:07 437.465
RS-15 21 Apr 02:38:25 02:49:13 46° 248° (WSW) 03:00:16 29.354- 29.394
ITUPSAT 1 21 Apr 02:41:16 02:46:04 75° 258° (WSW) 02:50:54 437.325
Cosmos 2504 21 Apr 02:45:38 02:53:54 70° 266° (W) 03:01:29 435.465 / 435.565
KKS-1 21 Apr 02:59:41 03:03:41 34° 68° (ENE) 03:07:44 437.445
GONETS M04 21 Apr 03:04:04 03:08:25 15° 51° (NE) 03:13:16
Oscar 19 21 Apr 03:05:54 03:11:02 57° 100° (E) 03:16:10 437.125/150
AIST 1 21 Apr 03:15:51 03:19:46 32° 286° (WNW) 03:23:38
BEESAT 21 Apr 03:16:10 03:20:32 34° 264° (W) 03:24:54 436.000
SWISSCUBE 21 Apr 03:17:56 03:22:12 31° 265° (W) 03:26:25 437.505
Gurwin Techsat 1B 21 Apr 03:28:15 03:32:38 26° 93° (E) 03:37:04 435.225
ITAMSAT 1 21 Apr 03:29:13 03:33:41 30° 94° (E) 03:38:13 435.822/435.867
STARS 21 Apr 04:06:35 04:10:58 77° 257° (WSW) 04:15:23 437.465
AO-7 21 Apr 04:22:07 04:27:12 18° 86° (E) 04:32:43 29.400- 29.500
MOZHAYETS 4 21 Apr 04:26:03 04:29:23 21° 65° (ENE) 04:32:52
KKS-1 21 Apr 04:36:42 04:40:25 25° 266° (W) 04:44:03 437.445
Cosmos 2504 21 Apr 04:42:09 04:45:47 13° 286° (WNW) 04:48:47 435.465 / 435.565
JAS-2 21 Apr 04:44:04 04:48:59 22° 86° (E) 04:53:40 435.910
Oscar 19 21 Apr 04:46:06 04:50:02 22° 298° (WNW) 04:53:51 437.125/150
GONETS M04 21 Apr 04:58:48 05:07:36 64° 76° (ENE) 05:16:22
BEESAT 2 21 Apr 05:04:47 05:08:40 42° 119° (ESE) 05:12:38 435.950
Gurwin Techsat 1B 21 Apr 05:07:46 05:12:50 45° 291° (WNW) 05:17:50 435.225
HORYU 2 21 Apr 05:08:28 05:12:51 47° 99° (E) 05:17:12 437.375
ITAMSAT 1 21 Apr 05:08:31 05:13:18 38° 292° (WNW) 05:18:01 435.822/435.867
CUSAT 1 21 Apr 05:08:46 05:15:24 47° 73° (ENE) 05:23:13 437.405
BEESAT 3 21 Apr 05:09:57 05:13:58 58° 121° (ESE) 05:18:03 437.485
DANDE 21 Apr 05:14:13 05:20:30 42° 72° (ENE) 05:28:09 436.750
AUBIESAT-1 21 Apr 05:18:31 05:21:16 16° 55° (NE) 05:24:11 437.475
Cosmos 2499 21 Apr 05:30:17 05:35:27 19° 56° (NE) 05:40:41 435.465 / 435.565
AIST 2 21 Apr 05:33:43 05:37:24 29° 116° (ESE) 05:41:09 435.215
CUBESAT XI-V 21 Apr 05:49:35 05:51:33 13° 61° (ENE) 05:53:42 437.345
MOZHAYETS 4 21 Apr 06:01:49 06:06:19 49° 261° (W) 06:10:51
M-CUBED/EXP-1 PRIME 21 Apr 06:03:50 06:08:18 41° 64° (ENE) 06:12:53 437.505
AO-7 21 Apr 06:13:01 06:21:24 84° 108° (ESE) 06:29:45 29.400- 29.500
JAS-2 21 Apr 06:28:07 06:34:52 65° 289° (WNW) 06:40:45 435.910
BEESAT 2 21 Apr 06:43:28 06:46:57 25° 318° (NW) 06:50:27 435.950
HORYU 2 21 Apr 06:45:51 06:49:12 20° 296° (WNW) 06:52:26 437.375
BEESAT 3 21 Apr 06:49:11 06:52:21 20° 321° (NW) 06:55:28 437.485
AUBIESAT-1 21 Apr 06:50:42 06:55:28 83° 254° (WSW) 07:00:20 437.475
CUSAT 1 21 Apr 06:51:37 06:58:09 41° 267° (W) 07:05:34 437.405
PRISM 21 Apr 06:55:18 06:59:04 34° 69° (ENE) 07:02:52 437.425
GONETS M04 21 Apr 06:56:27 07:03:56 31° 277° (W) 07:11:10
DANDE 21 Apr 06:57:24 07:03:51 45° 266° (W) 07:11:30 436.750
STRAND 1 21 Apr 07:05:06 07:09:44 37° 68° (ENE) 07:14:26 437.568
AIST 2 21 Apr 07:11:57 07:15:55 35° 314° (NW) 07:19:54 435.215
CUTE-I 21 Apr 07:20:19 07:24:48 28° 94° (E) 07:29:22 437.470
Cosmos 2499 21 Apr 07:22:05 07:30:12 85° 81° (E) 07:37:39 435.465 / 435.565
CUBESAT XI-V 21 Apr 07:23:45 07:28:24 83° 255° (WSW) 07:33:04 437.345
Cubesat XI-IV 21 Apr 07:28:13 07:32:58 33° 95° (E) 07:37:45 437.490
M-CUBED/EXP-1 PRIME 21 Apr 07:39:12 07:43:16 27° 262° (W) 07:47:20 437.505
AO-7 21 Apr 08:06:47 08:13:25 27° 308° (NW) 08:19:51 29.400- 29.500
JAS-2 21 Apr 08:15:23 08:18:34 13° 310° (NW) 08:21:19 435.910
AUBIESAT-1 21 Apr 08:30:06 08:31:04 10° 271° (W) 08:31:41 437.475
PRISM 21 Apr 08:31:16 08:34:38 23° 266° (W) 08:37:55 437.425
STRAND 1 21 Apr 08:44:31 08:49:02 30° 265° (W) 08:53:29 437.568
CUTE-I 21 Apr 09:00:03 09:05:04 42° 292° (WNW) 09:10:02 437.470
Cubesat XI-IV 21 Apr 09:08:15 09:13:07 36° 293° (WNW) 09:17:55 437.490
BRITE-PL 21 Apr 09:11:02 09:15:02 25° 93° (E) 09:19:22 437.365/2234.400
Cosmos 2499 21 Apr 09:16:58 09:22:17 19° 282° (WNW) 09:27:02 435.465 / 435.565
GOMX 1 21 Apr 09:24:15 09:28:08 23° 92° (E) 09:32:17 467.674
HO-68 21 Apr 09:27:18 09:32:53 25° 91° (E) 09:38:38 435.675
CANX-2 21 Apr 09:40:01 09:43:20 22° 92° (E) 09:46:43 2200.000
SEEDS 21 Apr 09:40:31 09:43:13 17° 90° (E) 09:46:02 437.485
PCSat 21 Apr 09:46:07 09:50:34 27° 110° (ESE) 09:55:09 145.827
CUTE 1.7 + AOD 2 21 Apr 09:49:47 09:53:19 25° 93° (E) 09:56:54 437.475
O/OREOS (USA 219) 21 Apr 09:50:27 09:54:57 62° 63° (ENE) 09:59:23 437.305
CINEMA 3 21 Apr 10:08:32 10:12:16 22° 91° (E) 10:16:10 145.822/145.860
AAUSAT CUBESAT 2 21 Apr 10:09:11 10:12:34 23° 93° (E) 10:15:59 437.432
DOVE 4 21 Apr 10:24:08 10:29:02 56° 99° (E) 10:34:09 437.250
ZACube-1 21 Apr 10:29:20 10:30:45 11° 86° (E) 10:32:27 437.345
POLYITAN 1 21 Apr 10:30:04 10:31:31 12° 61° (ENE) 10:33:09 437.675
Cosmos 2491 21 Apr 10:34:16 10:42:28 42° 69° (ENE) 10:50:46 435.465 / 435.565
TIGRISAT 21 Apr 10:34:17 10:37:56 25° 66° (ENE) 10:41:44 435.000
UNISAT 6 21 Apr 10:36:10 10:39:55 27° 67° (ENE) 10:43:50 437.425
DUCHIFAT 1 21 Apr 10:36:47 10:38:41 13° 62° (ENE) 10:40:46 145.980
Oscar 11 21 Apr 10:38:46 10:42:17 24° 93° (E) 10:45:50 145.826/435.025
CUBEBUG 2 21 Apr 10:40:56 10:44:44 24° 92° (E) 10:48:38 437.445
BRITE-PL 21 Apr 10:49:06 10:53:43 43° 289° (WNW) 10:58:38 437.365/2234.400
QB50P1 21 Apr 10:49:58 10:52:47 18° 64° (ENE) 10:55:45 145.935-145.965
BUGSAT 1 21 Apr 10:53:26 10:55:19 13° 63° (ENE) 10:57:21 437.445
COMPASS 1 21 Apr 10:57:20 11:01:36 90° 285° (WNW) 11:05:48 437.405
GOMX 1 21 Apr 11:01:44 11:06:29 49° 288° (WNW) 11:11:30 467.674
HUMSAT D 21 Apr 11:04:09 11:05:50 12° 87° (E) 11:07:45 437.325/437.525
DX 1 21 Apr 11:04:40 11:07:10 15° 90° (E) 11:09:51 434.975-435.025
QB50P2 21 Apr 11:13:13 11:16:54 31° 69° (ENE) 11:20:41 145.880/145.840
HO-68 21 Apr 11:14:08 11:21:18 70° 290° (WNW) 11:28:24 435.675
SEEDS 21 Apr 11:15:13 11:19:20 47° 288° (WNW) 11:23:24 437.485
CANX-2 21 Apr 11:15:26 11:19:25 37° 290° (WNW) 11:23:20 2200.000
UWE-3 21 Apr 11:17:06 11:21:35 43° 98° (E) 11:26:04 435.000/436.395/437.385
ANTELSAT 21 Apr 11:17:10 11:21:37 68° 74° (ENE) 11:26:14 437.575/2403.000
CUTE 1.7 + AOD 2 21 Apr 11:25:27 11:29:18 32° 291° (WNW) 11:33:05 437.475
50 SAT 21 Apr 11:25:31 11:27:00 12° 88° (E) 11:28:41 437.505
PCSat 21 Apr 11:28:31 11:33:46 49° 308° (NW) 11:39:03 145.827
O/OREOS (USA 219) 21 Apr 11:31:23 11:33:53 14° 260° (W) 11:36:11 437.305
NANOSAT C BR1 21 Apr 11:34:27 11:38:31 50° 72° (ENE) 11:42:37 145.865
POPSAT HIP 1 21 Apr 11:35:20 11:39:25 51° 72° (ENE) 11:43:33 437.405
FUNcube-1 21 Apr 11:39:49 11:44:22 58° 100° (E) 11:48:55 145.935
YUBILEINY 21 Apr 11:44:20 11:52:23 43° 88° (E) 12:00:34 435.215
AAUSAT CUBESAT 2 21 Apr 11:44:29 11:48:16 33° 291° (WNW) 11:52:00 437.432
CINEMA 3 21 Apr 11:44:59 11:49:43 49° 288° (WNW) 11:54:32 145.822/145.860
BEESAT 2 21 Apr 11:46:09 11:47:09 11° 28° (NNE) 11:48:17 435.950
BEESAT 3 21 Apr 11:50:30 11:52:19 13° 31° (NNE) 11:54:13 437.485
DELFI C3 21 Apr 11:51:10 11:55:14 74° 285° (WNW) 11:59:15 145.870
VELOX 1 21 Apr 11:51:43 11:55:11 23° 93° (E) 11:58:44 145.980
UKube-1 21 Apr 11:53:33 11:57:44 46° 99° (E) 12:01:54 .
POLYITAN 1 21 Apr 12:02:39 12:06:52 79° 256° (WSW) 12:11:08 437.675
DOVE 4 21 Apr 12:02:44 12:06:29 21° 295° (WNW) 12:10:13 437.250
ZACube-1 21 Apr 12:03:09 12:07:47 81° 284° (WNW) 12:12:24 437.345
AISAT 21 Apr 12:07:14 12:11:15 33° 96° (E) 12:15:19 437.250
DUCHIFAT 1 21 Apr 12:09:51 12:14:01 68° 258° (WSW) 12:18:14 145.980
TIGRISAT 21 Apr 12:10:24 12:14:32 36° 264° (W) 12:18:46 435.000
CUBEBUG 1 21 Apr 12:11:45 12:14:42 18° 91° (E) 12:17:46 437.445
UNISAT 6 21 Apr 12:12:31 12:16:37 34° 265° (W) 12:20:47 437.425
Oscar 11 21 Apr 12:14:35 12:18:34 35° 290° (WNW) 12:22:29 145.826/435.025
CUBEBUG 2 21 Apr 12:17:07 12:21:35 41° 289° (WNW) 12:26:03 437.445
QB50P1 21 Apr 12:24:19 12:28:23 46° 262° (W) 12:32:27 145.935-145.965
BUGSAT 1 21 Apr 12:26:23 12:30:22 61° 259° (W) 12:34:22 437.445
ESTCUBE 1 21 Apr 12:29:14 12:33:12 31° 95° (E) 12:37:13 437.505/2401.250
Cosmos 2491 21 Apr 12:31:10 12:39:33 49° 271° (W) 12:47:50 435.465 / 435.565
COMPASS 1 21 Apr 12:36:02 12:36:39 10° 300° (WNW) 12:37:04 437.405
HUMSAT D 21 Apr 12:37:48 12:42:10 69° 285° (WNW) 12:46:28 437.325/437.525
DX 1 21 Apr 12:39:34 12:43:50 55° 288° (WNW) 12:48:05 434.975-435.025
Oscar 19 21 Apr 12:48:19 12:51:06 15° 59° (ENE) 12:54:06 437.125/150
QB50P2 21 Apr 12:49:18 12:52:52 25° 266° (W) 12:56:22 145.880/145.840
UWE-3 21 Apr 12:54:09 12:57:52 23° 294° (WNW) 13:01:30 435.000/436.395/437.385
ANTELSAT 21 Apr 12:56:43 12:59:01 13° 273° (W) 13:01:08 437.575/2403.000
50 SAT 21 Apr 12:58:17 13:02:19 62° 286° (WNW) 13:06:18 437.505
HO-68 21 Apr 13:03:40 13:07:54 16° 310° (NW) 13:11:51 435.675
NANOSAT C BR1 21 Apr 13:12:05 13:14:42 16° 270° (W) 13:17:12 145.865
POPSAT HIP 1 21 Apr 13:13:06 13:15:41 15° 271° (W) 13:18:07 437.405
PCSat 21 Apr 13:16:02 13:18:36 13° 331° (NNW) 13:21:01 145.827
FUNcube-1 21 Apr 13:17:13 13:20:18 18° 297° (WNW) 13:23:15 145.935
AIST 1 21 Apr 13:20:22 13:24:38 73° 80° (E) 13:28:54
BEESAT 2 21 Apr 13:22:15 13:26:18 50° 50° (NE) 13:30:18 435.950
BEESAT 3 21 Apr 13:27:04 13:31:11 66° 52° (NE) 13:35:13 437.485
VELOX 1 21 Apr 13:27:47 13:31:54 38° 291° (WNW) 13:36:00 145.980
UKube-1 21 Apr 13:30:27 13:33:36 19° 296° (WNW) 13:36:38 .
Cosmos 2504 21 Apr 13:34:31 13:40:34 22° 79° (E) 13:46:59 435.465 / 435.565
TISAT 1 21 Apr 13:38:19 13:42:07 32° 96° (E) 13:45:57 437.305
YUBILEINY 21 Apr 13:40:45 13:49:13 47° 289° (WNW) 13:57:38 435.215
ZACube-1 21 Apr 13:42:17 13:43:28 11° 301° (WNW) 13:44:24 437.345
AISAT 21 Apr 13:44:01 13:47:45 26° 293° (WNW) 13:51:27 437.250
CUBEBUG 1 21 Apr 13:47:10 13:51:21 46° 289° (WNW) 13:55:31 437.445
SO-50 21 Apr 13:48:32 13:53:03 51° 120° (ESE) 13:57:45 436.795
SPROUT 21 Apr 13:50:15 13:54:30 54° 100° (E) 13:58:45 437.525
AIST 2 21 Apr 13:53:15 13:57:15 37° 47° (NE) 14:01:11 435.215
ESTCUBE 1 21 Apr 14:06:10 14:10:02 29° 293° (WNW) 14:13:51 437.505/2401.250
Oscar 19 21 Apr 14:24:42 14:29:50 84° 255° (WSW) 14:35:04 437.125/150
ITUPSAT 1 21 Apr 14:40:32 14:44:21 24° 93° (E) 14:48:16 437.325
ITAMSAT 1 21 Apr 14:48:57 14:53:59 55° 71° (ENE) 14:59:04 435.822/435.867
Gurwin Techsat 1B 21 Apr 14:51:03 14:56:08 49° 70° (ENE) 15:01:17 435.225
RS-15 21 Apr 14:54:32 15:02:44 27° 104° (ESE) 15:11:29 29.354- 29.394
ISS 21 Apr 14:55:04 14:58:12 44° 143° (SE) 15:01:20 145.825
JAS-2 21 Apr 14:58:17 15:03:07 19° 54° (NE) 15:08:09 435.910
AIST 1 21 Apr 15:01:05 15:01:44 10° 276° (W) 15:02:08
BEESAT 2 21 Apr 15:01:12 15:04:06 18° 247° (WSW) 15:06:51 435.950
BEESAT 3 21 Apr 15:06:36 15:08:44 14° 249° (WSW) 15:10:41 437.485
BEESAT 21 Apr 15:13:55 15:18:34 52° 99° (E) 15:23:13 436.000
TISAT 1 21 Apr 15:14:17 15:17:49 25° 293° (WNW) 15:21:16 437.305
SWISSCUBE 21 Apr 15:15:35 15:20:18 58° 101° (E) 15:24:59 437.505
AO-7 21 Apr 15:22:56 15:29:59 34° 56° (NE) 15:37:11 29.400- 29.500
Cosmos 2504 21 Apr 15:24:10 15:33:04 88° 279° (W) 15:41:58 435.465 / 435.565
SPROUT 21 Apr 15:27:26 15:30:13 17° 296° (WNW) 15:32:53 437.525
SO-50 21 Apr 15:29:47 15:33:53 27° 320° (NW) 15:38:02 436.795
AIST 2 21 Apr 15:32:07 15:35:43 26° 245° (WSW) 15:39:11 435.215
STARS 21 Apr 15:55:26 15:58:19 17° 90° (E) 16:01:22 437.465
HORYU 2 21 Apr 16:08:30 16:12:52 56° 72° (ENE) 16:17:19 437.375
Oscar 19 21 Apr 16:08:49 16:10:08 11° 276° (W) 16:11:07 437.125/150
GONETS M04 21 Apr 16:11:40 16:15:06 13° 74° (ENE) 16:19:10
ITUPSAT 1 21 Apr 16:17:57 16:22:26 40° 291° (WNW) 16:26:51 437.325
KKS-1 21 Apr 16:24:50 16:29:15 53° 100° (E) 16:33:39 437.445
ITAMSAT 1 21 Apr 16:30:01 16:33:54 20° 269° (W) 16:37:39 435.822/435.867
ISS 21 Apr 16:31:32 16:34:37 37° 341° (NNW) 16:37:41 145.825
Gurwin Techsat 1B 21 Apr 16:32:09 16:36:26 24° 268° (W) 16:40:37 435.225
JAS-2 21 Apr 16:39:17 16:47:05 73° 72° (ENE) 16:54:47 435.910
PCSat 21 Apr 16:49:58 16:51:02 11° 24° (NNE) 16:52:14 145.827
BEESAT 21 Apr 16:52:34 16:56:06 20° 297° (WNW) 16:59:30 436.000
SWISSCUBE 21 Apr 16:54:28 16:57:46 18° 298° (WNW) 17:00:56 437.505
RS-15 21 Apr 17:02:58 17:13:54 85° 305° (NW) 17:25:10 29.354- 29.394
AO-7 21 Apr 17:14:08 17:22:22 66° 256° (WSW) 17:30:37 29.400- 29.500
Cubesat XI-IV 21 Apr 17:17:10 17:18:09 11° 55° (NE) 17:19:24 437.490
Cosmos 2504 21 Apr 17:21:13 17:27:57 22° 301° (WNW) 17:34:19 435.465 / 435.565
STARS 21 Apr 17:30:48 17:35:08 50° 288° (WNW) 17:39:25 437.465
HORYU 2 21 Apr 17:47:06 17:49:56 16° 270° (W) 17:52:38 437.375
MOZHAYETS 4 21 Apr 17:55:05 17:59:17 34° 96° (E) 18:03:27
GONETS M04 21 Apr 18:01:46 18:10:24 68° 93° (E) 18:19:09
KKS-1 21 Apr 18:02:26 18:05:32 18° 297° (WNW) 18:08:31 437.445
ISS 21 Apr 18:08:48 18:11:33 24° 2° (N) 18:14:19 145.825
Cosmos 2499 21 Apr 18:11:53 18:15:44 14° 75° (ENE) 18:20:08 435.465 / 435.565
CUSAT 1 21 Apr 18:21:47 18:24:34 25° 88° (E) 18:28:05 437.405
JAS-2 21 Apr 18:26:16 18:32:46 27° 271° (W) 18:38:59 435.910
PCSat 21 Apr 18:31:09 18:36:10 37° 47° (NE) 18:41:11 145.827
DANDE 21 Apr 18:31:53 18:34:18 21° 87° (E) 18:37:16 436.750
CUTE-I 21 Apr 18:43:58 18:49:08 55° 71° (ENE) 18:54:21 437.470
Cubesat XI-IV 21 Apr 18:52:05 18:57:21 65° 73° (ENE) 19:02:39 437.490
VERMONT LUNAR 21 Apr 19:10:40 19:12:05 12° 153° (SSE) 19:13:34 437.305
AO-7 21 Apr 19:13:37 19:17:04 12° 278° (W) 19:19:51 29.400- 29.500
RS-15 21 Apr 19:18:13 19:28:07 36° 335° (NNW) 19:38:14 29.354- 29.394
CUBESAT XI-V 21 Apr 19:19:14 19:22:42 21° 91° (E) 19:26:16 437.345
M-CUBED/EXP-1 PRIME 21 Apr 19:19:26 19:22:47 22° 96° (E) 19:26:01 437.505
MOZHAYETS 4 21 Apr 19:32:30 19:36:25 27° 293° (WNW) 19:40:15
ISS 21 Apr 19:45:17 19:48:27 44° 21° (NNE) 19:51:35 145.825
HO-68 21 Apr 19:58:41 20:04:09 25° 56° (NE) 20:09:49 435.675
Cosmos 2499 21 Apr 19:58:46 20:07:31 68° 94° (E) 20:16:10 435.465 / 435.565
GONETS M04 21 Apr 20:00:33 20:08:05 30° 296° (WNW) 20:15:30
CUSAT 1 21 Apr 20:04:34 20:07:24 21° 298° (WNW) 20:10:44 437.405
AUBIESAT-1 21 Apr 20:05:27 20:09:47 58° 105° (ESE) 20:13:43 437.475
PRISM 21 Apr 20:10:52 20:14:47 41° 98° (E) 20:18:40 437.425
PCSat 21 Apr 20:14:36 20:19:38 39° 247° (WSW) 20:24:36 145.827
DANDE 21 Apr 20:14:58 20:17:32 20° 297° (WNW) 20:20:34 436.750
BRITE-PL 21 Apr 20:24:50 20:28:22 29° 68° (ENE) 20:32:03 437.365/2234.400
CUTE-I 21 Apr 20:25:32 20:29:37 21° 269° (W) 20:33:34 437.470
PHONESAT 2.4 21 Apr 20:30:55 20:33:20 17° 156° (SSE) 20:35:47 2401.200-2431.200
Cubesat XI-IV 21 Apr 20:34:20 20:38:01 18° 271° (W) 20:41:29 437.490
SEEDS 21 Apr 20:34:58 20:37:38 17° 64° (ENE) 20:40:24 437.485
CANX-2 21 Apr 20:35:10 20:38:23 21° 66° (ENE) 20:41:43 2200.000
GOMX 1 21 Apr 20:35:18 20:38:39 24° 67° (ENE) 20:42:12 467.674
SO-50 21 Apr 20:38:20 20:41:42 18° 32° (NNE) 20:45:10 436.795
CUTE 1.7 + AOD 2 21 Apr 20:44:46 20:48:11 24° 67° (ENE) 20:51:42 437.475
VERMONT LUNAR 21 Apr 20:45:59 20:49:01 30° 168° (SSE) 20:52:04 437.305
STRAND 1 21 Apr 20:52:07 20:57:16 79° 105° (ESE) 21:02:22 437.568
M-CUBED/EXP-1 PRIME 21 Apr 20:53:42 20:57:52 39° 296° (WNW) 21:01:42 437.505
CUBESAT XI-V 21 Apr 20:56:01 21:00:23 43° 289° (WNW) 21:04:43 437.345
AAUSAT CUBESAT 2 21 Apr 21:02:15 21:05:28 22° 66° (ENE) 21:08:46 437.432
CINEMA 3 21 Apr 21:12:53 21:16:10 22° 65° (ENE) 21:19:40 145.822/145.860
ISS 21 Apr 21:21:46 21:24:45 32° 220° (SW) 21:27:41 145.825
ZACube-1 21 Apr 21:27:51 21:29:29 12° 60° (ENE) 21:31:20 437.345
DOVE 4 21 Apr 21:32:15 21:36:24 64° 74° (ENE) 21:40:45 437.250
RS-15 21 Apr 21:35:30 21:44:46 28° 9° (N) 21:54:25 29.354- 29.394
Oscar 11 21 Apr 21:35:36 21:39:06 25° 67° (ENE) 21:42:42 145.826/435.025
AUBIESAT-1 21 Apr 21:41:14 21:44:06 17° 304° (NW) 21:46:43 437.475
CUBEBUG 2 21 Apr 21:41:33 21:44:59 24° 66° (ENE) 21:48:36 437.445
HO-68 21 Apr 21:44:04 21:51:16 77° 255° (WSW) 21:58:31 435.675
PRISM 21 Apr 21:47:02 21:50:01 19° 295° (WNW) 21:52:52 437.425
COMPASS 1 21 Apr 21:50:12 21:54:26 79° 76° (ENE) 21:58:43 437.405
YUBILEINY 21 Apr 21:52:01 21:58:37 24° 59° (ENE) 22:05:28 435.215
Cosmos 2499 21 Apr 21:53:42 22:01:26 31° 295° (WNW) 22:08:50 435.465 / 435.565
HUMSAT D 21 Apr 21:58:41 22:00:18 12° 61° (ENE) 22:02:07 437.325/437.525
DX 1 21 Apr 22:02:20 22:05:16 18° 64° (ENE) 22:08:19 434.975-435.025
BRITE-PL 21 Apr 22:03:30 22:06:59 25° 267° (W) 22:10:29 437.365/2234.400
PHONESAT 2.4 21 Apr 22:07:45 22:11:05 36° 172° (S) 22:14:25 2401.200-2431.200
SEEDS 21 Apr 22:08:53 22:13:03 53° 260° (W) 22:17:17 437.485
CANX-2 21 Apr 22:10:03 22:14:07 40° 263° (W) 22:18:11 2200.000
GOMX 1 21 Apr 22:13:00 22:16:44 31° 265° (W) 22:20:34 467.674
50 SAT 21 Apr 22:14:27 22:15:02 10° 61° (ENE) 22:15:50 437.505
UWE-3 21 Apr 22:16:16 22:20:20 43° 71° (ENE) 22:24:35 435.000/436.395/437.385
SO-50 21 Apr 22:18:05 22:23:04 80° 53° (NE) 22:28:00 436.795
CUTE 1.7 + AOD 2 21 Apr 22:20:02 22:23:59 34° 264° (W) 22:27:56 437.475
VERMONT LUNAR 21 Apr 22:23:01 22:26:12 37° 185° (S) 22:29:21 437.305
STRAND 1 21 Apr 22:32:50 22:35:53 16° 301° (WNW) 22:38:46 437.568
AAUSAT CUBESAT 2 21 Apr 22:36:58 22:40:54 37° 263° (W) 22:44:51 437.432
FUNcube-1 21 Apr 22:37:27 22:41:39 56° 73° (ENE) 22:46:01 145.935
DELFI C3 21 Apr 22:40:17 22:44:23 87° 77° (ENE) 22:48:31 145.870
CINEMA 3 21 Apr 22:49:09 22:53:09 38° 264° (W) 22:57:21 145.822/145.860
UKube-1 21 Apr 22:50:12 22:54:23 50° 72° (ENE) 22:58:36 .
VELOX 1 21 Apr 22:51:23 22:55:01 26° 67° (ENE) 22:58:45 145.980
ZACube-1 21 Apr 23:00:56 23:05:14 81° 257° (WSW) 23:09:42 437.345
AISAT 21 Apr 23:07:00 23:11:04 38° 70° (ENE) 23:15:11 437.250
ANTELSAT 21 Apr 23:08:57 23:11:11 14° 87° (E) 23:13:38 437.575/2403.000
CUBEBUG 1 21 Apr 23:10:06 23:13:14 20° 65° (ENE) 23:16:28 437.445
Oscar 11 21 Apr 23:11:09 23:15:09 34° 264° (W) 23:19:09 145.826/435.025
DOVE 4 21 Apr 23:12:58 23:14:49 12° 274° (W) 23:16:28 437.250
CUBEBUG 2 21 Apr 23:17:31 23:21:31 36° 264° (W) 23:25:39 437.445
ESTCUBE 1 21 Apr 23:30:44 23:34:52 37° 70° (ENE) 23:39:02 437.505/2401.250
HUMSAT D 21 Apr 23:31:18 23:35:30 76° 258° (WSW) 23:39:48 437.325/437.525
HO-68 21 Apr 23:36:35 23:40:21 14° 276° (W) 23:43:41 435.675
DX 1 21 Apr 23:37:00 23:41:12 48° 260° (W) 23:45:26 434.975-435.025
Cosmos 2491 21 Apr 23:38:05 23:46:04 44° 88° (E) 23:54:13 435.465 / 435.565
50 SAT 21 Apr 23:45:17 23:49:17 82° 257° (WSW) 23:53:21 437.505
PHONESAT 2.4 21 Apr 23:45:41 23:49:00 36° 189° (S) 23:52:19 2401.200-2431.200
POLYITAN 1 21 Apr 23:47:29 23:49:57 15° 89° (E) 23:52:35 437.675
YUBILEINY 21 Apr 23:47:56 23:56:46 84° 262° (W) 00:05:28 435.215
RS-15 21 Apr 23:49:30 00:00:33 52° 40° (NE) 00:12:11 29.354- 29.394
DUCHIFAT 1 21 Apr 23:53:42 23:56:27 17° 90° (E) 23:59:19 145.980
UWE-3 21 Apr 23:53:57 23:57:09 19° 270° (W) 00:00:19 435.000/436.395/437.385
TIGRISAT 21 Apr 23:59:45 00:04:15 41° 97° (E) 00:08:41 435.000
SO-50 22 Apr 00:00:10 00:03:05 15° 250° (WSW) 00:05:47 436.795
VERMONT LUNAR 22 Apr 00:00:43 00:03:16 20° 201° (SSW) 00:05:45 437.305
UNISAT 6 22 Apr 00:02:02 00:06:34 44° 98° (E) 00:11:04 437.425
O/OREOS (USA 219) 22 Apr 00:04:28 00:08:53 50° 109° (ESE) 00:13:20 437.305
BUGSAT 1 22 Apr 00:07:35 00:10:09 16° 91° (E) 00:12:53 437.445
QB50P1 22 Apr 00:07:48 00:11:17 24° 94° (E) 00:14:49 145.935-145.965
FUNcube-1 22 Apr 00:15:54 00:18:28 15° 272° (W) 00:20:53 145.935
VELOX 1 22 Apr 00:27:32 00:31:31 32° 264° (W) 00:35:29 145.980
UKube-1 22 Apr 00:28:04 00:30:53 16° 270° (W) 00:33:32 .
QB50P2 22 Apr 00:31:52 00:35:59 44° 98° (E) 00:40:07 145.880/145.840
TISAT 1 22 Apr 00:32:33 00:36:14 31° 69° (ENE) 00:39:58 437.305
ANTELSAT 22 Apr 00:43:50 00:48:34 72° 286° (WNW) 00:53:14 437.575/2403.000
AISAT 22 Apr 00:44:21 00:47:50 22° 267° (W) 00:51:13 437.250
CUBEBUG 1 22 Apr 00:45:13 00:49:21 43° 262° (W) 00:53:29 437.445
SPROUT 22 Apr 00:46:14 00:50:22 53° 73° (ENE) 00:54:34 437.525
BEESAT 22 Apr 00:49:07 00:49:51 10° 57° (ENE) 00:50:50 436.000
SWISSCUBE 22 Apr 00:50:01 00:51:34 12° 58° (ENE) 00:53:20 437.505
NANOSAT C BR1 22 Apr 00:52:58 00:57:16 73° 103° (ESE) 01:01:34 145.865
POPSAT HIP 1 22 Apr 00:54:10 00:58:29 75° 103° (ESE) 01:02:47 437.405
ESTCUBE 1 22 Apr 01:08:08 01:11:52 24° 267° (W) 01:15:30 437.505/2401.250
Cosmos 2504 22 Apr 01:15:48 01:23:25 40° 69° (ENE) 01:30:36 435.465 / 435.565
POLYITAN 1 22 Apr 01:22:02 01:26:15 54° 287° (WNW) 01:30:28 437.675
PHONESAT 2.4 22 Apr 01:24:23 01:26:44 16° 205° (SSW) 01:29:02 2401.200-2431.200
DUCHIFAT 1 22 Apr 01:28:27 01:32:35 48° 288° (WNW) 01:36:42 145.980
TIGRISAT 22 Apr 01:36:56 01:40:47 25° 294° (WNW) 01:44:31 435.000
UNISAT 6 22 Apr 01:39:22 01:43:06 23° 295° (WNW) 01:46:43 437.425
BUGSAT 1 22 Apr 01:41:58 01:45:56 46° 288° (WNW) 01:49:54 437.445
